Location: Amsterdam
(30.7274°N, 84.4357°W)
Time: 17:06:04
(UTC+00:00)

Injun/Solrad 3 - Pass Details

Date: 26 February 2026
Orbit: 871 x 985 km, 66.8° (Epoch: 11 March)

Event Time Altitude Azimuth Distance (km) Brightness Sun altitude
Rises 23:10:53 0° 348° (NNW) 3,600 11.0 4.1°
Reaches altitude 10° 23:13:51 10° 0° (N) 2,672 10.2 3.5°
Maximum altitude 23:19:01 27° 57° (ENE) 1,771 8.9 2.4°
Drops below altitude 10° 23:24:16 10° 113° (ESE) 2,715 9.9 1.3°
Sets 23:27:16 0° 125° (SE) 3,669 10.6 0.6°
